Hourly Weather Bratskoe

Today, 16 July, Thursday

Time Temperature Precipitation Wind Pressure Humidity
00:00 +18°C° 0 mm 1 mps 753 mmHg 66%
01:00 +18°C° 0 mm 1 mps 753 mmHg 68%
02:00 +16°C° 0 mm 0 mps 753 mmHg 69%
03:00 +16°C° 0 mm 0 mps 753 mmHg 70%
04:00 +18°C° 0 mm 1 mps 753 mmHg 70%
05:00 +18°C° 0 mm 1 mps 753 mmHg 71%
06:00 +19°C° 0 mm 1 mps 753 mmHg 65%
07:00 +21°C° 0 mm 1 mps 753 mmHg 59%
08:00 +23°C° 0 mm 1 mps 753 mmHg 53%
09:00 +24°C° 0 mm 1 mps 753 mmHg 48%
10:00 +26°C° 0 mm 1 mps 753 mmHg 43%
11:00 +27°C° 0 mm 1 mps 753 mmHg 38%
12:00 +28°C° 0 mm 1 mps 752 mmHg 36%
13:00 +28°C° 0 mm 1 mps 752 mmHg 33%
14:00 +29°C° 0 mm 1 mps 752 mmHg 31%
15:00 +29°C° 0 mm 1 mps 752 mmHg 31%
16:00 +28°C° 0 mm 1 mps 751 mmHg 31%
17:00 +28°C° 0 mm 1 mps 751 mmHg 31%
18:00 +27°C° 0 mm 1 mps 751 mmHg 37%
19:00 +25°C° 0 mm 2 mps 751 mmHg 43%
20:00 +24°C° 0 mm 2 mps 751 mmHg 49%
21:00 +23°C° 0 mm 2 mps 751 mmHg 53%
22:00 +21°C° 0 mm 2 mps 751 mmHg 57%
23:00 +20°C° 0 mm 2 mps 751 mmHg 61%

Tomorrow, 17 July, Friday

Time Temperature Precipitation Wind Pressure Humidity
00:00 +20°C° 0 mm 2 mps 751 mmHg 62%
01:00 +20°C° 0 mm 2 mps 751 mmHg 63%
02:00 +19°C° 0 mm 2 mps 751 mmHg 65%
03:00 +19°C° 0 mm 2 mps 751 mmHg 65%
04:00 +20°C° 0 mm 1 mps 751 mmHg 65%
05:00 +20°C° 0 mm 1 mps 751 mmHg 65%
06:00 +21°C° 0 mm 2 mps 751 mmHg 60%
07:00 +23°C° 0 mm 2 mps 752 mmHg 55%
08:00 +25°C° 0 mm 2 mps 752 mmHg 50%
09:00 +26°C° 0 mm 2 mps 752 mmHg 45%
10:00 +27°C° 0 mm 2 mps 752 mmHg 40%
11:00 +29°C° 0 mm 1 mps 752 mmHg 35%
12:00 +29°C° 0 mm 1 mps 752 mmHg 35%
13:00 +29°C° 0 mm 1 mps 752 mmHg 34%
14:00 +29°C° 0 mm 1 mps 752 mmHg 33%
15:00 +29°C° 0 mm 1 mps 752 mmHg 35%
16:00 +29°C° 0 mm 1 mps 751 mmHg 37%
17:00 +28°C° 0 mm 1 mps 751 mmHg 39%
18:00 +27°C° 0 mm 1 mps 752 mmHg 42%
19:00 +26°C° 0 mm 2 mps 752 mmHg 45%
20:00 +25°C° 0 mm 2 mps 752 mmHg 47%
21:00 +24°C° 0 mm 2 mps 752 mmHg 50%
22:00 +23°C° 0 mm 2 mps 752 mmHg 52%
23:00 +21°C° 0 mm 2 mps 753 mmHg 55%

Day after tomorrow, 18 July, Saturday

Time Temperature Precipitation Wind Pressure Humidity
00:00 +21°C° 0 mm 2 mps 753 mmHg 57%
01:00 +20°C° 0 mm 2 mps 753 mmHg 60%
02:00 +20°C° 0 mm 2 mps 753 mmHg 62%
03:00 +19°C° 0 mm 2 mps 753 mmHg 64%
04:00 +19°C° 0 mm 3 mps 753 mmHg 66%
05:00 +19°C° 0 mm 3 mps 753 mmHg 68%
06:00 +21°C° 0 mm 3 mps 753 mmHg 63%
07:00 +24°C° 0 mm 3 mps 753 mmHg 57%
08:00 +26°C° 0 mm 3 mps 754 mmHg 51%
09:00 +28°C° 0 mm 3 mps 754 mmHg 46%
10:00 +29°C° 0 mm 3 mps 754 mmHg 40%
11:00 +30°C° 0 mm 3 mps 754 mmHg 35%
12:00 +30°C° 0 mm 3 mps 753 mmHg 35%
13:00 +30°C° 0 mm 3 mps 753 mmHg 35%
14:00 +31°C° 0 mm 3 mps 753 mmHg 34%
15:00 +30°C° 0 mm 3 mps 753 mmHg 36%
16:00 +30°C° 0 mm 3 mps 753 mmHg 37%
17:00 +30°C° 0 mm 3 mps 753 mmHg 38%
18:00 +29°C° 0 mm 3 mps 753 mmHg 43%
19:00 +27°C° 0 mm 3 mps 753 mmHg 47%
20:00 +26°C° 0 mm 3 mps 753 mmHg 52%
21:00 +26°C° 0 mm 3 mps 753 mmHg 54%
22:00 +25°C° 0 mm 3 mps 753 mmHg 56%
23:00 +25°C° 0 mm 3 mps 753 mmHg 58%

19 July, Sunday

Time Temperature Precipitation Wind Pressure Humidity
00:00 +24°C° 0 mm 3 mps 753 mmHg 60%
01:00 +24°C° 0 mm 2 mps 753 mmHg 63%
02:00 +23°C° 0 mm 2 mps 753 mmHg 65%
03:00 +23°C° 0 mm 2 mps 753 mmHg 66%
04:00 +23°C° 0 mm 2 mps 753 mmHg 67%
05:00 +21°C° 0 mm 2 mps 753 mmHg 67%
06:00 +24°C° 0 mm 3 mps 753 mmHg 63%
07:00 +25°C° 0 mm 3 mps 753 mmHg 59%
08:00 +26°C° 0 mm 3 mps 753 mmHg 55%
09:00 +28°C° 0 mm 4 mps 753 mmHg 49%
10:00 +29°C° 0 mm 4 mps 753 mmHg 43%
11:00 +30°C° 0 mm 4 mps 753 mmHg 38%
12:00 +30°C° 0 mm 4 mps 752 mmHg 39%
13:00 +30°C° 0 mm 4 mps 752 mmHg 39%
14:00 +30°C° 0 mm 4 mps 752 mmHg 40%
15:00 +30°C° 0 mm 3 mps 752 mmHg 40%
16:00 +30°C° 0 mm 3 mps 751 mmHg 40%
17:00 +30°C° 0 mm 3 mps 751 mmHg 40%
18:00 +29°C° 0 mm 3 mps 751 mmHg 45%
19:00 +27°C° 0 mm 3 mps 751 mmHg 50%
20:00 +25°C° 0 mm 4 mps 751 mmHg 56%
21:00 +25°C° 0 mm 3 mps 751 mmHg 57%
22:00 +24°C° 0 mm 3 mps 751 mmHg 58%
23:00 +22°C° 0 mm 3 mps 751 mmHg 60%

20 July, Monday

Time Temperature Precipitation Wind Pressure Humidity
00:00 +22°C° 0 mm 3 mps 751 mmHg 60%
01:00 +22°C° 0 mm 3 mps 751 mmHg 60%
02:00 +21°C° 0 mm 3 mps 751 mmHg 61%
03:00 +21°C° 0 mm 3 mps 751 mmHg 63%
04:00 +21°C° 0 mm 3 mps 751 mmHg 65%
05:00 +20°C° 0 mm 2 mps 751 mmHg 67%
06:00 +23°C° 0 mm 2 mps 751 mmHg 61%
07:00 +25°C° 0 mm 2 mps 750 mmHg 55%
08:00 +27°C° 0 mm 2 mps 750 mmHg 49%
09:00 +29°C° 0 mm 2 mps 750 mmHg 43%
10:00 +30°C° 0 mm 3 mps 750 mmHg 38%
11:00 +33°C° 0 mm 3 mps 750 mmHg 32%
12:00 +33°C° 0 mm 3 mps 749 mmHg 31%
13:00 +34°C° 0 mm 3 mps 749 mmHg 30%
14:00 +34°C° 0 mm 3 mps 748 mmHg 29%
15:00 +32°C° 0 mm 2 mps 748 mmHg 32%
16:00 +32°C° 0 mm 2 mps 748 mmHg 36%
17:00 +31°C° 0 mm 2 mps 747 mmHg 39%
18:00 +28°C° 0.6 mm 2 mps 747 mmHg 50%
19:00 +26°C° 0.6 mm 2 mps 747 mmHg 61%
20:00 +24°C° 0.6 mm 2 mps 747 mmHg 72%
21:00 +23°C° 0.3 mm 2 mps 747 mmHg 76%
22:00 +21°C° 0.3 mm 2 mps 747 mmHg 80%
23:00 +20°C° 0.3 mm 2 mps 747 mmHg 85%

21 July, Tuesday

Time Temperature Precipitation Wind Pressure Humidity
00:00 +20°C° 0.1 mm 2 mps 747 mmHg 86%
01:00 +20°C° 0.1 mm 2 mps 747 mmHg 88%
02:00 +19°C° 0.1 mm 2 mps 746 mmHg 90%
03:00 +19°C° 0 mm 3 mps 746 mmHg 91%
04:00 +19°C° 0 mm 3 mps 746 mmHg 91%
05:00 +18°C° 0 mm 3 mps 746 mmHg 92%
06:00 +20°C° 0 mm 4 mps 747 mmHg 85%
07:00 +22°C° 0 mm 4 mps 747 mmHg 78%
08:00 +23°C° 0 mm 5 mps 747 mmHg 71%
09:00 +26°C° 0 mm 5 mps 747 mmHg 65%
10:00 +27°C° 0 mm 4 mps 747 mmHg 58%
11:00 +29°C° 0 mm 4 mps 747 mmHg 52%
12:00 +30°C° 0.1 mm 5 mps 747 mmHg 49%
13:00 +30°C° 0.1 mm 5 mps 747 mmHg 46%
14:00 +32°C° 0.1 mm 5 mps 747 mmHg 43%
15:00 +32°C° 0 mm 5 mps 747 mmHg 45%
16:00 +30°C° 0 mm 5 mps 747 mmHg 46%
17:00 +30°C° 0 mm 6 mps 747 mmHg 47%
18:00 +28°C° 0 mm 5 mps 748 mmHg 53%
19:00 +27°C° 0 mm 4 mps 748 mmHg 60%
20:00 +25°C° 0 mm 3 mps 748 mmHg 66%
21:00 +24°C° 0 mm 3 mps 749 mmHg 70%
22:00 +24°C° 0 mm 3 mps 749 mmHg 73%
23:00 +23°C° 0 mm 2 mps 749 mmHg 77%
Show more